Waarnemingen

Advertentie
Mijn weer
Muret-Lherm, Frankrijk (7628): temperatuur & dauwpunt: 15.03.2019 13:00:00 - 21.03.2019 13:00:00 (CET)Muret-Lherm, Frankrijk (7628): windsnelheid & windstoten: 15.03.2019 13:00:00 - 21.03.2019 13:00:00 (CET)Muret-Lherm, Frankrijk (7628): windrichting: 15.03.2019 13:00:00 - 21.03.2019 13:00:00 (CET)Muret-Lherm, Frankrijk (7628): luchtdruk: 15.03.2019 13:00:00 - 21.03.2019 13:00:00 (CET)Muret-Lherm, Frankrijk (7628): zicht: 15.03.2019 13:00:00 - 21.03.2019 13:00:00 (CET)Muret-Lherm, Frankrijk (7628): neerslag: 15.03.2019 13:00:00 - 21.03.2019 13:00:00 (CET)
Datum & Tijd tt [°C] td [°C] ff [km/u] ff [kn] fx [km/u] fx [kn] dd ppp [hPa] vv [km] rr [mm]
21.03.2019 13:00:00 14,3 -1,0 8 4 16 9 NNW 1029,4 20 -
21.03.2019 12:00:00 13,5 0,8 5 3 16 9 WZW 1029,9 20 0,0
21.03.2019 11:00:00 12,1 2,3 5 3 16 9 WNW 1030,3 20 0,0
21.03.2019 10:00:00 9,9 1,3 9 5 15 8 WZW 1030,6 20 0,0
21.03.2019 09:00:00 7,0 1,7 9 5 13 7 WZW 1030,9 20 0,0
21.03.2019 08:00:00 0,9 -0,6 5 3 9 5 Z 1031,4 20 0,0
21.03.2019 07:00:00 -1,3 -2,9 4 2 8 4 ZZW 1031,1 20 -
21.03.2019 06:00:00 -1,1 -2,8 0 0 13 7 N 1030,8 20 0,0
21.03.2019 05:00:00 0,4 -1,4 9 5 13 7 ZW 1030,5 20 0,0
21.03.2019 04:00:00 0,6 -1,5 8 4 13 7 ZZW 1030,1 20 0,0
21.03.2019 03:00:00 0,7 -1,2 11 6 13 7 ZZW 1030,8 20 0,0
21.03.2019 02:00:00 0,9 -1,3 9 5 13 7 Z 1031,4 20 0,0
21.03.2019 01:00:00 1,7 -0,9 11 6 13 7 Z 1031,4 20 -
21.03.2019 00:00:00 1,6 -1,0 9 5 15 8 Z 1031,8 20 0,0
20.03.2019 23:00:00 2,3 -1,0 9 5 15 8 ZZW 1031,9 20 0,0
20.03.2019 22:00:00 4,9 -1,3 9 5 13 7 WZW 1031,9 20 0,0
20.03.2019 21:00:00 4,8 -1,9 9 5 13 7 WZW 1031,7 20 0,0
20.03.2019 20:00:00 6,4 -1,3 9 5 15 8 WZW 1031,3 20 0,0
20.03.2019 19:00:00 9,9 -0,6 9 5 13 7 WZW 1030,9 20 -
20.03.2019 18:00:00 13,5 -1,3 8 4 16 9 W 1030,3 20 0,0
20.03.2019 17:00:00 13,9 -0,6 8 4 22 12 NW 1030,1 20 0,0
20.03.2019 16:00:00 13,5 -1,3 9 5 26 14 WNW 1030,1 20 0,0
20.03.2019 15:00:00 13,8 -3,1 5 3 21 11 NW 1030,4 20 0,0
20.03.2019 14:00:00 12,8 -0,1 11 6 21 11 NNO 1031,0 20 0,0
20.03.2019 13:00:00 12,2 -0,4 8 4 21 11 NNW 1031,8 20 -
20.03.2019 12:00:00 11,6 -1,6 9 5 21 11 W 1032,0 20 0,0
20.03.2019 11:00:00 10,7 1,5 8 4 15 8 WNW 1032,4 19 0,0
20.03.2019 10:00:00 8,5 1,9 5 3 13 7 W 1032,5 20 0,0
20.03.2019 09:00:00 6,1 2,5 8 4 11 6 W 1032,6 20 0,2
20.03.2019 08:00:00 1,5 0,3 5 3 11 6 ZZW 1032,4 18 0,0
20.03.2019 07:00:00 1,2 0,0 5 3 8 4 W 1031,9 20 -
20.03.2019 06:00:00 1,5 0,5 5 3 8 4 WZW 1031,6 20 0,0
20.03.2019 05:00:00 0,7 -1,1 4 2 15 8 ZW 1031,5 20 0,0
20.03.2019 04:00:00 3,1 1,6 11 6 15 8 W 1031,1 20 0,0
20.03.2019 03:00:00 3,5 1,9 11 6 15 8 W 1031,4 20 0,0
20.03.2019 02:00:00 4,4 2,1 11 6 21 11 WNW 1031,4 20 0,0
20.03.2019 01:00:00 5,1 2,6 13 7 24 13 W 1031,3 20 -
20.03.2019 00:00:00 6,7 3,1 18 10 24 13 W 1031,2 20 0,0
19.03.2019 23:00:00 7,1 3,7 11 6 15 8 WZW 1030,9 20 0,0
19.03.2019 22:00:00 7,1 3,3 9 5 18 10 WZW 1030,4 20 0,0
19.03.2019 21:00:00 8,3 3,5 13 7 18 10 W 1029,8 20 0,0
19.03.2019 20:00:00 8,4 3,6 9 5 16 9 W 1029,6 20 0,0
19.03.2019 19:00:00 9,0 3,6 13 7 21 11 WNW 1029,1 20 -
19.03.2019 18:00:00 9,5 3,7 15 8 24 13 WNW 1028,5 20 0,0
19.03.2019 17:00:00 9,5 3,7 18 10 29 16 NW 1028,2 20 0,0
19.03.2019 16:00:00 10,7 3,2 18 10 29 16 NW 1027,7 20 0,0
19.03.2019 15:00:00 9,5 3,9 18 10 29 16 NW 1027,6 20 0,0
19.03.2019 14:00:00 9,3 4,3 18 10 28 15 NNW 1027,9 20 0,0
19.03.2019 13:00:00 9,5 5,3 15 8 31 17 NNW 1028,2 20 -
19.03.2019 12:00:00 9,6 4,4 13 7 26 14 NW 1027,9 20 0,0
19.03.2019 11:00:00 8,3 5,2 16 9 24 13 WNW 1028,0 20 0,0
19.03.2019 10:00:00 7,5 6,1 11 6 16 9 NW 1028,0 20 0,2
19.03.2019 09:00:00 6,4 5,2 11 6 16 9 NW 1027,8 14 0,0
19.03.2019 08:00:00 5,9 4,7 9 5 16 9 W 1027,4 13 0,0
19.03.2019 07:00:00 5,4 4,4 11 6 21 11 W 1026,7 20 -
19.03.2019 06:00:00 5,4 4,0 13 7 18 10 WNW 1026,7 20 0,0
19.03.2019 05:00:00 5,3 3,9 11 6 18 10 W 1026,6 20 0,0
19.03.2019 04:00:00 5,2 3,7 13 7 24 13 WNW 1026,5 80 0,4
19.03.2019 03:00:00 5,6 3,8 11 6 22 12 WNW 1026,8 18 0,0
19.03.2019 02:00:00 6,1 3,3 11 6 37 20 NW 1027,1 20 0,4
19.03.2019 01:00:00 7,7 3,7 13 7 24 13 W 1026,8 20 -
19.03.2019 00:00:00 7,9 3,7 16 9 22 12 W 1027,2 20 0,0
18.03.2019 23:00:00 7,9 3,5 11 6 18 10 WNW 1027,5 20 0,0
18.03.2019 22:00:00 8,0 4,2 13 7 22 12 WNW 1027,5 20 0,0
18.03.2019 21:00:00 8,4 4,2 11 6 28 15 WNW 1027,0 20 0,0
18.03.2019 20:00:00 8,6 4,0 11 6 42 23 NW 1026,7 20 0,0
18.03.2019 19:00:00 10,4 1,7 11 6 28 15 WNW 1026,1 20 -
18.03.2019 18:00:00 11,2 1,7 22 12 31 17 NW 1026,0 20 0,0
18.03.2019 17:00:00 12,2 1,2 21 11 29 16 WNW 1025,6 20 0,0
18.03.2019 16:00:00 12,0 0,7 22 12 31 17 WNW 1026,0 20 0,0
18.03.2019 15:00:00 12,5 0,6 18 10 39 21 NW 1026,2 20 0,0
18.03.2019 14:00:00 11,9 -0,3 21 11 34 18 WNW 1026,9 20 0,0
18.03.2019 13:00:00 11,2 0,6 21 11 34 18 NW 1027,8 20 -
18.03.2019 12:00:00 11,3 1,8 22 12 35 19 WNW 1028,0 20 0,0
18.03.2019 11:00:00 10,6 3,1 18 10 34 18 WNW 1028,1 19 0,0
18.03.2019 10:00:00 8,8 4,2 18 10 28 15 WNW 1028,0 20 0,0
18.03.2019 09:00:00 7,3 4,4 15 8 22 12 WNW 1027,6 20 0,0
18.03.2019 08:00:00 5,2 3,4 13 7 21 11 WNW 1027,3 20 0,0
18.03.2019 07:00:00 4,4 2,4 13 7 22 12 W 1026,7 20 -
18.03.2019 06:00:00 5,4 3,4 13 7 31 17 W 1026,3 20 0,2
18.03.2019 05:00:00 5,9 3,1 18 10 28 15 WNW 1025,6 20 0,0
18.03.2019 04:00:00 5,9 2,7 21 11 31 17 W 1025,3 20 0,0
18.03.2019 03:00:00 5,9 2,5 16 9 28 15 W 1025,3 20 0,0
18.03.2019 02:00:00 6,1 2,7 18 10 31 17 W 1025,6 20 0,0
18.03.2019 01:00:00 5,8 2,4 16 9 26 14 W 1026,0 20 -
18.03.2019 00:00:00 5,6 2,1 13 7 24 13 W 1026,1 20 0,0
17.03.2019 23:00:00 5,8 1,9 13 7 21 11 W 1025,9 20 0,0
17.03.2019 22:00:00 6,8 1,5 15 8 35 19 W 1025,4 20 0,0
17.03.2019 21:00:00 7,9 1,9 18 10 37 20 WNW 1024,5 20 0,0
17.03.2019 20:00:00 8,8 1,5 24 13 37 20 WNW 1023,3 20 0,0
17.03.2019 19:00:00 9,7 2,3 21 11 46 25 W 1022,4 20 -
17.03.2019 18:00:00 10,9 4,1 29 16 50 27 WNW 1021,4 20 0,0
17.03.2019 17:00:00 11,7 4,4 29 16 48 26 WNW 1021,0 20 0,0
17.03.2019 16:00:00 11,2 5,1 35 19 54 29 WNW 1020,7 20 0,0
17.03.2019 15:00:00 10,3 7,2 28 15 61 33 NW 1020,8 19 0,0
17.03.2019 14:00:00 13,2 7,8 31 17 52 28 WNW 1019,2 19 0,0
17.03.2019 13:00:00 13,9 7,4 28 15 39 21 W 1018,7 20 -
17.03.2019 12:00:00 14,2 8,8 21 11 29 16 ZW 1019,0 19 0,0
17.03.2019 11:00:00 11,7 8,2 15 8 22 12 WZW 1019,6 19 0,0
17.03.2019 10:00:00 11,1 8,3 16 9 24 13 ZW 1019,7 16 0,0
17.03.2019 09:00:00 10,2 8,8 13 7 21 11 ZZW 1019,1 10 0,0
17.03.2019 08:00:00 9,4 7,5 5 3 9 5 ZW 1018,7 15 0,0
17.03.2019 07:00:00 9,4 7,2 5 3 16 9 WZW 1017,9 17 -
17.03.2019 06:00:00 9,5 6,8 13 7 34 18 WNW 1016,9 19 0,0
17.03.2019 05:00:00 9,0 6,6 18 10 34 18 NW 1015,9 19 0,0
17.03.2019 04:00:00 9,6 6,1 18 10 34 18 W 1014,6 20 0,0
17.03.2019 03:00:00 3,5 2,3 9 5 39 21 Z 1014,7 20 0,0
17.03.2019 02:00:00 3,3 1,2 0 0 5 3 N 1014,3 20 0,0
17.03.2019 01:00:00 6,0 4,6 5 3 8 4 Z 1014,1 20 -
17.03.2019 00:00:00 5,5 3,7 8 4 11 6 ZZW 1014,7 14 0,0
16.03.2019 23:00:00 6,0 3,3 5 3 9 5 Z 1015,5 20 0,0
16.03.2019 22:00:00 7,3 4,1 4 2 8 4 ZW 1015,9 20 0,0
16.03.2019 21:00:00 8,6 3,0 5 3 8 4 NW 1015,7 20 0,0
16.03.2019 20:00:00 11,9 4,1 4 2 8 4 O 1015,2 20 0,0
16.03.2019 19:00:00 16,7 5,0 5 3 9 5 O 1015,0 20 -
16.03.2019 18:00:00 18,6 6,4 8 4 13 7 O 1015,4 20 0,0
16.03.2019 17:00:00 20,1 5,3 5 3 11 6 O 1016,0 18 0,0
16.03.2019 16:00:00 19,2 6,6 5 3 9 5 NO 1017,0 20 0,0
16.03.2019 15:00:00 19,1 6,2 4 2 16 9 O 1018,0 18 0,0
16.03.2019 14:00:00 17,2 6,7 5 3 15 8 NO 1019,1 20 0,0
16.03.2019 13:00:00 15,8 7,0 5 3 15 8 ONO 1020,4 20 -
16.03.2019 12:00:00 14,1 6,2 5 3 15 8 NO 1021,5 20 0,0
16.03.2019 11:00:00 12,5 5,9 8 4 18 10 OZO 1022,3 20 0,0
16.03.2019 10:00:00 11,4 5,5 8 4 16 9 O 1023,3 20 0,0
16.03.2019 09:00:00 10,3 5,3 8 4 13 7 O 1023,9 20 0,0
16.03.2019 08:00:00 5,7 4,3 5 3 8 4 OZO 1024,6 80 0,0
16.03.2019 07:00:00 5,1 3,3 4 2 4 2 ONO 1025,1 20 -
16.03.2019 06:00:00 6,9 3,5 2 1 4 2 N 1025,6 20 0,0
16.03.2019 05:00:00 8,3 4,3 2 1 9 5 W 1025,6 20 0,0
16.03.2019 04:00:00 9,0 4,4 4 2 16 9 W 1025,9 20 0,0
16.03.2019 03:00:00 9,1 4,7 5 3 15 8 WNW 1026,8 20 0,0
16.03.2019 02:00:00 9,6 4,6 8 4 13 7 NW 1027,5 20 0,0
16.03.2019 01:00:00 9,7 5,1 8 4 18 10 WNW 1027,9 20 -
16.03.2019 00:00:00 10,1 5,5 11 6 18 10 NW 1028,4 20 0,0
15.03.2019 23:00:00 10,4 5,6 11 6 24 13 WNW 1028,7 20 0,0
15.03.2019 22:00:00 10,6 6,7 13 7 21 11 WNW 1028,8 20 0,0
15.03.2019 21:00:00 10,9 6,6 13 7 24 13 WNW 1028,6 20 0,0
15.03.2019 20:00:00 11,3 7,0 13 7 24 13 W 1028,7 20 0,0
15.03.2019 19:00:00 11,6 7,1 15 8 26 14 W 1028,3 20 -
15.03.2019 18:00:00 12,0 7,5 16 9 29 16 W 1027,7 20 0,0
15.03.2019 17:00:00 12,5 7,2 22 12 34 18 W 1027,3 20 0,0
15.03.2019 16:00:00 12,3 7,4 21 11 31 17 W 1027,7 20 0,0
15.03.2019 15:00:00 12,3 7,2 24 13 35 19 WNW 1027,8 20 0,0
15.03.2019 14:00:00 12,2 6,9 26 14 42 23 W 1028,0 20 0,0
15.03.2019 13:00:00 12,5 7,0 24 13 37 20 W 1028,1 20 -

tt = temperatuur
td = dauwpunt
ff = windsnelheid
fx = windstoten
dd = windrichting
ppp = luchtdruk
vv = zicht
rr = neerslag

Weerstations in de omgeving